Regional Weather Roundup
Issued by NWS

Home | Current Version | Previous Version | Text Only | Print | Product List | Glossary On
Versions: 1 2 3 4 5 6 7 8 9 10 11 12 13 14 15 16 17 18 19 20 21 22 23 24 25 26 27 28 29 30 31 32 33 34 35 36 37 38 39 40 41 42 43 44 45 46 47 48 49 50
000
ASUS44 KOUN 230810
RWROK

WEATHER ROUNDUP FOR OKLAHOMA
NATIONAL WEATHER SERVICE NORMAN OK
200 AM CST MON JAN 23 2017

NOTE: "FAIR" INDICATES FEW OR NO CLOUDS BELOW 12,000 FEET WITH NO
      SIGNIFICANT WEATHER AND/OR OBSTRUCTIONS TO VISIBILITY.

OKZ001>007-009>012-014-015-017-230900-
NORTHWEST OKLAHOMA AND THE PANHANDLE

CITY           SKY/WX    TMP DP  RH WIND       PRES   REMARKS
GAGE           CLOUDY    28  26  92 W5        29.94F WCI  23
GUYMON         CLOUDY    27  22  81 CALM      29.90F
ENID/WOODRING  CLEAR     32  32 100 CALM      29.94F
$$

OKZ016-021>023-033>039-044-045-230900-
SOUTHWEST OKLAHOMA

CITY           SKY/WX    TMP DP  RH WIND       PRES   REMARKS
LAWTON/REGL    CLEAR     34  30  85 S3        29.98S
LAWTON/FT SILL CLEAR     42  33  71 CALM      29.97S
FREDERICK      CLEAR     40  33  76 N12       29.93F WCI  33
CLINTON        CLEAR     35  29  78 W5        29.97F WCI  31
HOBART         CLEAR     34  30  85 N8        29.97F WCI  27
ALTUS AFB      CLEAR     30  26  86 NE9       29.95F WCI  21
$$

OKZ018>020-024>031-230900-
CENTRAL OKLAHOMA

CITY           SKY/WX    TMP DP  RH WIND       PRES   REMARKS
OKLAHOMA CITY  CLEAR     39  29  67 N3        29.96F
OKC/WILEY POST CLEAR     39  30  70 N5        29.96F
OKC/TINKER AFB CLEAR     38  29  70 N3        29.95F
STILLWATER     CLEAR     31  28  89 CALM      29.95F
GUTHRIE        CLEAR     36  30  79 E3        29.96F
$$

OKZ008-013-054>072-230900-
NORTHEAST OKLAHOMA

CITY           SKY/WX    TMP DP  RH WIND       PRES   REMARKS
TULSA          CLEAR     33  31  92 NW5       29.98R WCI  29
TULSA/JONES    CLEAR     37  31  78 N5        29.98R WCI  33
PONCA CITY     CLEAR     29  26  89 CALM      29.95F
BARTLESVILLE   CLEAR     29  27  92 CALM      29.97F
MUSKOGEE       CLEAR     35  32  88 N9        29.97S WCI  28
$$

OKZ032-040>043-046>053-073>077-230900-
SOUTH CENTRAL/SOUTHEAST OKLAHOMA

CITY           SKY/WX    TMP DP  RH WIND       PRES   REMARKS
ARDMORE/DWNTWN CLEAR     45  30  57 CALM      29.98R
MCALESTER      PTCLDY    39  31  72 NW7       29.97R WCI  34
$$





USA.gov is the U.S. government's official web portal to all federal, state and local government web resources and services.